Wind_Speed
6 5 3 1 3 4 5 7 5 6 9 9 11 14 14 17 20 22 24 24 24 25 25 26 25 24 22 22 23 24 24 24 23 23 23 22 21 20 20 19 18 18 19 19 19 19 18 19 20 20 21 21 22 22 22 22 23 23 23 23 23 24 24 23 24 24 24 24 24 24 24 25 26 27 28 28 28 29 29 29 29 28 27 26 24
7 6 4 1 2 4 6 8 7 6 8 10 11 14 16 17 21 23 24 24 24 25 25 25 25 23 22 22 23 24 24 24 24 23 22 21 19 19 18 18 17 17 17 18 18 18 17 18 19 19 20 20 20 20 21 21 22 22 22 22 22 22 23 23 23 23 23 23 23 23 24 25 26 27 28 29 29 30 31 31 31 30 29 27 25
8 7 5 2 1 4 6 8 8 7 8 9 10 14 17 18 21 24 25 25 25 24 24 24 23 23 22 22 23 24 25 24 23 22 20 19 17 17 17 16 16 16 16 17 17 17 17 17 18 18 18 18 18 18 19 20 21 21 21 22 21 21 22 22 22 23 23 23 24 25 25 26 27 28 29 29 30 31 32 33 33 32 30 27 25
10 8 7 3 1 3 5 7 9 8 7 7 7 11 17 19 20 23 25 25 24 24 23 23 23 23 23 23 23 23 23 23 22 20 18 17 16 15 15 15 14 14 15 16 16 16 16 16 17 17 16 16 16 17 17 18 19 19 20 20 20 21 21 21 22 23 23 24 25 26 27 28 28 28 29 30 31 32 33 35 35 33 30 28 25
11 9 8 6 2 2 5 7 9 9 7 8 7 8 14 19 19 22 24 25 24 23 23 22 22 23 24 24 23 22 21 21 20 18 17 15 15 14 13 13 13 13 14 15 15 15 15 15 15 15 15 14 14 15 16 17 17 18 18 19 19 20 20 20 21 22 23 24 25 26 27 28 29 29 30 31 32 33 35 36 36 33 30 27 26
11 10 9 8 5 3 4 6 8 9 9 10 9 9 13 18 20 21 23 25 25 24 22 22 22 23 23 23 21 20 20 20 19 17 16 14 13 12 12 11 12 12 13 14 14 14 13 14 14 14 13 13 13 13 14 15 16 16 16 17 18 18 18 19 20 20 22 23 24 26 27 28 29 30 31 32 33 34 36 37 36 33 30 27 26
12 11 10 9 7 4 4 5 8 9 9 10 11 11 12 15 19 21 22 24 24 24 23 23 23 23 24 23 22 21 20 19 18 16 15 13 12 11 11 10 10 11 12 13 13 13 12 12 12 12 12 12 12 12 13 14 14 14 15 15 15 16 16 17 18 19 20 22 23 25 26 28 29 30 31 32 33 35 36 37 37 33 29 27 26
12 11 11 10 9 7 5 5 7 9 10 9 9 10 10 13 17 21 22 23 24 24 24 24 24 24 24 23 22 21 19 18 17 16 15 13 11 11 10 9 8 9 10 12 12 12 11 11 11 11 10 11 11 12 12 12 12 12 13 13 14 14 15 15 17 18 19 21 22 24 25 27 28 30 31 32 33 34 36 37 37 33 29 27 27
13 12 11 11 10 8 7 6 6 8 9 9 9 8 9 12 15 19 22 23 25 25 25 25 25 25 24 22 20 19 18 17 16 14 13 12 12 11 10 9 7 7 8 10 11 11 10 10 10 9 9 9 10 11 11 11 11 11 11 11 12 12 13 14 16 17 18 20 21 23 24 26 28 29 30 32 33 34 35 37 37 33 29 27 27
13 12 11 11 10 9 8 7 6 8 9 10 11 10 11 13 15 18 22 24 25 26 27 27 27 26 24 22 19 18 17 16 15 13 12 11 10 10 9 8 7 6 7 8 9 9 8 8 8 8 8 8 8 9 10 10 10 9 9 9 10 11 12 13 15 16 17 19 20 22 23 25 26 28 29 30 32 33 34 36 37 34 29 27 27
14 14 13 12 11 10 9 8 7 7 8 10 11 10 11 13 14 16 20 23 25 27 28 29 28 26 24 22 20 18 17 16 14 13 12 12 11 10 9 8 7 6 5 6 7 7 7 6 6 7 7 7 6 6 7 8 9 8 7 7 8 9 10 12 13 15 16 18 19 20 22 24 25 27 28 29 31 32 34 36 37 34 29 27 27
16 15 14 12 11 11 10 10 8 8 8 9 10 10 10 11 13 15 18 22 25 27 28 29 28 27 25 23 22 20 19 17 15 14 14 14 13 11 10 9 8 6 5 5 5 5 5 4 4 5 5 5 5 4 5 6 7 7 6 6 7 8 9 10 12 13 15 17 18 20 21 23 25 26 28 28 30 32 33 35 37 34 29 27 27
17 16 14 13 13 13 12 11 10 9 9 10 10 11 11 11 12 14 17 20 24 27 28 28 27 26 25 24 23 22 20 18 17 16 15 15 13 13 12 10 8 7 5 5 4 4 4 3 2 3 3 3 3 3 3 5 5 6 6 6 6 7 8 9 11 13 14 16 18 19 21 23 24 26 27 28 29 31 33 35 36 34 29 26 26
18 17 16 15 16 15 13 12 12 11 10 10 11 12 12 13 13 14 15 18 21 24 26 27 27 26 26 26 25 23 22 20 19 18 17 15 14 13 12 10 8 7 6 5 4 4 3 3 2 2 2 2 2 2 2 3 4 5 6 6 7 7 8 9 11 12 14 16 17 19 21 22 24 25 26 27 28 30 32 34 35 34 29 26 25
22 21 19 19 18 17 16 15 14 13 12 11 11 12 13 14 14 15 16 17 19 21 23 25 26 26 26 27 27 25 23 22 21 19 18 17 15 14 12 11 9 9 8 7 5 4 4 3 3 3 3 3 3 2 1 1 3 4 5 7 7 8 9 10 11 12 13 15 17 19 21 22 23 24 26 26 27 29 31 32 34 33 28 25 24
26 25 23 22 21 20 19 18 17 15 14 13 12 12 13 14 14 15 16 17 17 18 19 21 24 26 27 27 27 26 25 24 22 20 18 18 17 16 14 13 12 11 10 9 8 6 6 5 5 5 4 5 4 4 3 3 3 4 5 7 8 9 10 10 11 12 13 15 17 18 20 21 22 24 24 25 26 28 29 31 33 32 28 24 23
29 28 26 24 23 22 20 20 19 17 15 13 12 13 13 14 14 15 16 16 17 18 18 19 22 25 27 27 26 26 26 25 23 21 20 19 19 18 17 16 14 13 12 11 10 9 8 7 7 6 6 6 6 5 5 5 4 5 6 6 7 8 9 10 11 11 13 14 16 17 18 19 21 23 23 23 24 26 28 29 31 31 27 24 23
32 30 27 25 24 23 21 21 20 18 17 16 14 14 15 15 16 16 17 17 17 17 18 20 21 23 25 27 27 27 26 26 25 24 23 22 21 20 19 18 16 15 15 14 13 12 11 10 8 8 7 7 7 7 7 6 6 6 7 7 7 8 9 10 11 12 12 13 15 16 17 18 20 21 22 22 23 24 26 27 30 30 27 24 22
34 32 29 28 27 25 23 22 20 19 19 18 17 17 17 17 18 18 18 18 17 16 18 20 22 23 24 26 27 27 27 26 26 26 26 25 24 22 21 20 19 18 17 16 15 14 13 12 10 9 9 8 8 8 8 8 8 8 8 8 7 8 10 11 12 11 11 12 14 15 16 18 19 21 21 21 21 23 24 26 28 29 27 24 22
37 34 32 31 29 27 25 23 22 21 20 19 18 18 18 18 19 19 19 19 19 19 20 21 23 24 24 25 26 27 27 27 28 28 27 26 25 24 23 22 22 21 19 18 17 16 15 14 13 11 10 10 10 10 9 9 9 9 9 9 8 9 10 11 11 10 11 12 13 14 16 17 19 20 20 20 20 21 23 24 27 28 27 24 22
39 37 35 33 32 29 27 25 23 22 21 21 20 19 19 19 20 20 20 21 21 21 22 22 23 24 25 26 26 27 27 28 29 29 29 28 26 26 25 24 23 23 22 20 19 18 17 16 15 13 12 12 12 12 11 11 11 11 11 10 10 10 10 11 10 10 10 12 13 14 15 17 19 20 20 19 20 20 21 23 25 27 27 24 21
41 39 38 36 33 31 29 26 24 24 23 23 22 20 20 20 20 21 22 22 23 23 23 23 23 24 25 27 27 27 27 28 29 30 29 29 28 27 26 26 25 24 23 22 21 20 19 18 17 16 14 14 14 14 14 13 13 13 12 12 11 11 11 11 10 10 11 12 13 14 15 17 19 20 20 19 19 20 21 22 24 26 27 24 21
43 41 40 37 35 32 30 27 26 26 25 24 23 22 21 20 20 21 22 23 24 24 24 24 24 24 24 25 27 28 28 29 29 30 30 29 29 28 27 27 26 25 24 23 23 22 21 20 19 18 16 16 16 16 15 15 15 15 14 14 13 12 12 11 11 11 12 13 14 14 15 17 19 20 20 20 20 20 20 21 23 25 26 25 22
45 43 41 38 35 32 29 28 29 28 27 26 25 24 22 21 21 22 22 23 24 24 24 25 25 24 24 25 27 29 29 29 30 30 30 29 29 28 28 27 26 26 25 24 24 23 22 21 20 19 19 19 18 18 17 17 17 16 16 16 14 13 13 13 12 12 13 14 14 15 15 17 19 20 20 20 20 20 20 20 21 23 25 25 22
45 43 41 38 35 33 31 32 32 31 29 28 27 26 24 23 22 22 21 22 24 25 26 26 26 25 25 26 27 29 30 30 30 31 30 30 29 29 28 28 27 27 26 25 25 24 24 23 22 21 21 21 20 19 19 19 19 18 18 18 17 15 15 14 14 14 15 15 16 16 16 17 19 20 21 21 21 21 20 20 21 22 24 25 23
46 43 41 38 36 35 34 34 33 32 31 30 29 27 25 24 23 22 21 22 24 25 26 27 27 27 27 28 28 30 31 31 30 30 31 31 31 30 29 28 28 27 27 26 26 25 25 24 23 23 23 23 22 21 20 21 21 20 20 20 19 18 17 16 16 16 16 17 17 17 18 18 19 20 20 21 21 21 20 19 20 21 23 24 23
46 43 41 39 38 37 36 36 35 34 33 32 30 28 26 25 24 22 22 22 24 25 26 28 28 29 29 29 30 31 32 31 29 29 30 32 33 32 31 30 29 29 28 28 27 26 25 25 25 25 25 25 24 22 22 22 22 23 22 22 21 20 19 19 18 18 18 18 19 19 19 20 20 20 21 21 21 21 21 20 19 20 21 22 23
44 42 41 41 40 39 38 38 37 35 34 33 31 29 27 26 25 23 23 24 24 25 27 28 29 30 31 31 31 32 33 32 30 29 29 32 34 34 33 32 31 31 30 29 28 27 26 26 26 27 27 26 25 24 23 23 24 25 25 24 24 23 22 21 20 20 20 20 20 20 21 21 22 22 21 21 22 22 21 20 19 19 20 22 22
45 43 42 42 41 40 39 39 38 36 35 34 32 31 29 27 26 25 25 26 26 27 28 28 29 31 32 33 32 32 32 33 32 31 30 31 33 34 34 34 34 33 32 31 30 28 27 27 27 28 28 28 27 25 25 25 26 26 26 26 26 25 24 24 23 22 22 22 22 22 22 22 23 23 22 22 22 22 22 21 20 19 20 21 21
47 45 44 43 42 41 41 40 39 38 37 36 34 33 31 30 28 27 27 27 27 28 29 29 31 32 33 33 33 32 32 32 33 33 33 33 33 34 35 36 36 35 34 33 32 30 29 28 28 29 29 29 28 26 26 27 27 27 28 28 28 27 27 26 25 25 24 24 24 23 24 24 24 24 24 23 23 23 23 22 21 20 20 21 21
48 47 45 44 42 42 42 42 41 41 40 38 37 35 33 31 29 29 28 28 29 29 30 31 32 32 32 33 34 34 33 33 33 34 35 35 34 34 35 37 37 37 37 36 35 33 31 30 29 30 30 30 28 27 27 28 28 29 29 30 30 29 29 28 28 27 27 26 26 26 26 26 26 26 25 24 23 23 23 23 22 21 21 21 22
49 47 45 44 44 44 45 44 43 42 41 39 37 36 34 32 31 31 31 30 31 31 31 32 33 32 33 33 34 35 35 34 34 35 35 36 36 35 36 37 38 39 38 38 37 35 34 32 31 31 32 31 29 28 29 29 30 30 30 31 31 31 31 30 30 30 29 29 28 28 28 28 28 28 27 26 25 24 24 24 24 23 22 22 23
50 49 48 47 48 47 47 46 44 42 40 39 38 37 36 35 34 34 32 31 31 31 31 32 33 33 34 34 35 36 36 36 36 35 35 36 36 37 38 38 39 39 39 39 38 37 36 34 33 33 33 31 30 29 30 30 31 31 32 32 33 33 33 33 32 32 31 31 30 30 30 31 31 30 29 28 27 26 26 26 25 25 23 23 24
53 52 52 52 51 50 49 47 45 43 42 41 40 39 37 36 35 33 33 32 32 31 32 32 33 34 35 35 35 36 37 37 37 36 35 36 37 38 38 38 39 39 40 40 40 38 37 36 36 35 34 33 32 31 31 32 32 32 33 34 35 35 35 35 34 34 33 33 32 32 32 33 33 32 31 30 29 28 28 27 27 27 26 24 24
58 57 56 54 53 52 51 49 47 46 44 42 41 39 38 36 34 34 34 34 33 32 32 33 34 35 36 36 37 37 38 39 39 38 37 37 38 39 39 39 39 39 40 41 40 39 38 37 37 37 36 36 35 34 33 33 33 33 34 35 36 36 36 36 36 35 35 34 34 34 34 34 34 33 33 32 31 31 30 30 29 28 28 26 25
62 60 58 57 56 56 54 51 49 47 45 43 42 41 38 36 36 36 35 35 34 33 33 34 34 36 37 38 39 39 40 40 41 40 39 38 39 39 39 39 39 39 39 40 39 39 38 38 37 37 37 38 37 36 36 36 35 35 36 37 37 37 37 37 37 37 37 36 36 36 36 36 36 35 34 34 34 33 33 32 31 30 30 29 27
63 62 61 60 59 57 54 51 49 48 46 44 43 42 39 37 37 37 36 36 35 34 35 36 36 37 38 40 40 41 41 42 42 42 42 41 41 40 39 38 38 38 38 37 37 38 39 39 39 39 40 40 40 39 39 39 38 38 39 39 39 38 38 38 38 38 38 38 38 38 39 38 37 36 36 36 36 36 36 35 34 33 32 30 29
64 64 63 62 59 56 53 51 51 50 47 44 43 42 38 38 39 39 37 37 36 36 37 37 38 39 40 41 41 42 42 43 43 45 45 44 43 41 39 38 38 38 37 36 36 37 39 40 41 41 42 42 42 41 41 41 42 41 41 42 41 40 40 40 40 40 40 40 40 40 41 40 39 38 38 38 38 38 38 38 36 35 34 32 31
66 65 63 60 58 56 54 53 52 50 46 45 45 42 39 40 42 40 37 38 38 37 38 39 39 40 41 41 42 42 43 43 45 46 47 46 45 43 41 40 39 38 37 37 37 37 39 41 42 43 44 44 43 43 43 43 43 44 44 44 44 43 43 43 42 42 42 42 43 43 43 43 41 40 40 40 40 40 40 39 38 37 36 34 33
67 64 62 60 58 56 55 53 52 49 47 47 47 43 41 42 43 41 39 40 40 40 40 40 40 40 41 42 42 43 44 45 46 46 47 47 47 45 44 42 41 40 39 38 38 38 38 39 41 42 43 44 43 43 43 44 44 45 46 46 46 46 46 45 45 45 45 45 46 46 45 45 43 42 41 41 42 42 42 41 40 39 38 36 35
67 64 63 61 59 58 57 55 53 51 50 49 47 43 43 45 44 42 42 43 42 41 41 40 40 41 42 43 44 45 45 46 46 46 47 48 48 48 47 45 44 42 41 40 39 39 39 39 39 40 41 42 42 43 43 44 45 46 47 47 47 47 47 47 47 47 48 48 48 48 47 46 45 44 43 43 43 43 43 42 41 40 39 38 37
66 65 63 62 61 59 58 56 54 52 51 48 45 44 46 46 44 44 44 44 43 42 41 41 42 43 44 45 45 45 45 45 45 46 46 48 49 49 49 48 46 44 42 41 41 41 41 40 40 39 39 39 40 41 43 44 46 46 47 47 48 48 48 48 48 49 49 49 49 48 48 47 46 46 45 44 44 43 43 43 42 41 40 40 39
67 65 63 62 61 60 59 57 56 54 51 48 46 46 47 46 45 45 44 43 43 42 42 43 43 44 44 44 44 44 44 45 45 46 47 47 48 50 50 50 48 46 45 44 43 43 43 42 41 41 40 39 38 38 39 42 45 46 47 48 48 48 48 48 49 49 49 49 49 49 49 48 47 46 46 44 43 43 43 43 42 41 41 41 41
68 66 65 64 62 61 60 58 56 54 51 49 49 49 48 48 47 46 44 44 44 43 43 43 43 43 43 43 42 42 43 44 45 46 46 47 48 49 51 51 50 49 48 47 46 46 45 45 44 43 42 41 39 38 38 40 42 44 46 47 47 47 47 47 48 48 48 48 48 48 48 47 46 45 45 44 43 43 43 43 42 42 42 42 41
69 68 67 65 63 62 61 59 57 55 53 52 51 51 51 50 48 46 45 45 44 43 43 42 42 42 42 42 42 41 41 42 43 44 46 47 48 49 50 52 52 52 51 50 49 48 48 47 46 45 44 42 41 40 39 40 41 43 44 46 46 46 46 46 46 47 46 46 46 46 46 45 44 44 44 44 43 43 43 43 43 43 43 42 41
70 69 68 67 65 63 62 60 58 57 55 54 54 53 52 51 48 47 46 45 44 43 42 41 41 42 43 42 42 42 42 42 42 43 44 46 47 48 50 51 52 53 53 52 52 51 50 49 48 46 45 44 42 41 41 41 41 42 43 43 44 44 44 44 44 44 44 43 43 43 43 43 43 42 43 44 44 43 43 43 43 43 42 42 42
71 70 69 68 67 65 63 62 60 59 58 57 56 56 54 52 50 49 47 45 44 43 41 41 42 44 44 44 44 43 43 43 43 43 44 44 46 47 49 51 53 54 55 55 54 53 52 50 49 48 46 45 44 43 43 42 42 42 41 42 42 42 43 43 44 43 43 41 41 41 41 41 41 41 42 43 43 43 43 42 42 42 41 42 42
72 71 70 68 67 66 64 63 61 60 60 60 59 58 56 54 52 50 48 46 45 43 43 43 44 45 45 45 45 44 44 43 44 44 44 45 46 47 49 52 53 54 55 55 55 54 53 52 50 49 48 47 46 45 45 44 43 43 42 42 42 42 43 43 44 43 42 41 40 40 39 39 39 39 40 41 42 42 42 42 41 42 42 43 44
73 72 71 69 68 66 64 63 62 61 62 62 62 60 58 56 54 51 49 47 46 45 45 45 45 45 45 44 45 44 44 44 43 44 45 46 48 49 51 52 54 54 55 56 56 55 55 53 52 51 50 49 48 48 47 46 45 44 44 43 43 43 43 43 43 43 41 40 40 40 40 40 40 40 41 41 42 42 42 43 43 44 45 46 47
75 74 72 70 69 67 65 63 62 62 63 64 63 61 59 57 55 52 50 49 48 47 47 46 46 45 45 44 44 44 44 44 44 44 45 46 48 50 52 53 54 55 55 56 56 56 56 55 54 54 53 52 51 50 49 47 46 46 45 45 45 45 45 44 44 43 42 42 42 42 43 44 44 44 44 44 45 45 46 46 47 47 48 49 49
76 75 73 71 70 68 65 64 63 63 65 65 64 63 61 58 56 54 52 51 50 48 48 48 47 46 45 44 43 44 44 45 45 44 45 46 48 49 51 53 54 54 55 55 55 56 56 56 56 56 55 54 53 52 51 50 48 48 48 47 48 48 47 47 46 46 45 45 45 46 47 48 49 49 48 48 49 49 49 49 49 50 50 51 51
Wind_Direction
125 104 72 58 133 135 143 144 137 135 148 154 147 152 162 157 154 156 157 156 157 159 162 162 160 159 155 152 150 149 147 144 140 135 130 126 122 118 113 108 103 99 96 93 92 92 92 93 94 95 95 95 93 90 87 83 79 76 74 73 70 67 65 64 64 64 64 62 61 58 55 53 50 49 47 45 41 37 33 30 25 22 19 18 18
136 119 96 76 147 137 144 147 144 140 149 161 155 152 161 162 157 159 160 160 161 162 165 165 164 163 159 155 152 149 145 142 138 135 131 128 124 119 113 108 103 98 95 93 92 91 91 91 92 94 94 93 92 88 84 81 78 76 74 72 69 67 66 64 63 62 61 59 57 54 51 49 46 45 43 41 38 34 29 26 23 20 18 19 22
147 134 113 99 173 146 144 148 148 148 150 165 168 159 162 167 164 163 166 166 165 165 165 166 165 163 160 156 152 147 144 141 139 137 134 130 126 120 114 108 103 99 95 93 91 91 91 91 92 92 92 90 87 83 80 78 77 77 76 75 73 70 68 65 63 61 59 56 53 51 49 46 44 41 40 38 35 31 27 24 21 19 20 23 27
155 148 131 121 184 167 149 150 152 150 144 155 172 168 164 169 171 169 170 171 169 168 166 165 164 161 158 156 152 149 146 145 143 141 139 134 128 121 114 108 103 99 95 93 92 91 91 93 93 93 90 86 82 78 77 78 78 78 79 78 77 74 70 67 64 62 59 56 53 50 47 45 43 39 37 35 32 28 25 22 20 20 21 27 32
164 158 144 135 158 194 160 153 153 152 145 145 164 176 168 170 176 176 174 174 173 172 169 166 163 160 159 158 155 152 150 149 148 147 145 140 133 126 117 111 106 102 97 93 91 91 92 95 97 96 92 87 81 78 79 81 82 82 82 81 79 77 74 70 65 62 58 55 52 49 46 43 40 37 34 32 29 26 24 21 20 20 23 29 34
172 166 155 146 153 192 178 159 154 156 155 153 160 177 177 174 178 180 179 178 177 175 172 169 165 163 162 162 160 157 157 157 156 155 152 147 139 131 123 117 112 106 100 95 93 92 93 97 100 99 96 90 85 84 85 87 86 84 82 80 79 77 73 67 62 58 54 51 49 45 43 40 37 34 31 29 26 24 22 20 19 20 24 30 33
181 175 165 159 159 175 193 173 159 161 164 163 165 176 185 181 179 182 183 181 180 179 176 174 172 169 168 168 168 167 165 164 161 160 160 156 148 139 131 125 119 112 105 100 98 96 96 99 102 102 98 93 88 88 90 90 89 85 80 76 73 70 67 61 56 52 48 45 44 41 38 36 33 31 29 26 24 22 21 19 19 20 25 29 31
190 185 173 169 169 169 187 191 172 165 168 170 171 173 182 187 183 182 184 183 183 182 181 180 179 178 177 176 174 172 169 168 167 166 168 167 160 150 143 135 128 119 111 106 103 102 102 104 106 106 102 96 91 88 88 88 87 84 79 73 68 63 59 54 50 45 42 39 38 36 33 31 29 27 26 24 23 21 19 18 17 19 24 28 29
200 198 185 178 178 174 178 195 188 171 166 169 174 173 175 186 189 184 183 185 186 186 185 186 187 186 186 184 180 176 174 173 173 173 175 175 168 161 155 149 141 129 120 113 110 108 108 111 113 113 110 103 95 89 85 84 83 81 78 71 63 57 51 47 43 38 35 33 32 31 28 26 24 23 23 22 21 19 18 17 16 18 22 26 27
209 207 198 188 185 183 176 186 197 184 171 170 178 179 174 181 191 188 185 186 187 189 190 191 193 193 193 192 187 183 181 181 180 179 182 182 176 169 165 162 156 145 131 119 115 115 115 117 120 121 118 111 102 93 86 82 80 78 75 69 60 51 44 38 35 31 28 26 25 25 23 21 19 19 20 20 19 18 17 16 15 17 20 23 25
216 210 207 198 191 189 182 183 198 200 185 174 178 182 178 180 187 189 188 188 189 191 195 197 198 199 198 198 196 194 193 191 188 187 188 188 186 183 179 179 175 164 149 131 122 121 121 122 125 127 125 119 112 100 88 81 76 73 68 62 54 44 37 31 28 25 22 20 19 19 18 17 16 15 17 18 18 17 16 15 15 16 18 20 22
227 220 216 207 195 193 190 186 192 206 202 185 179 181 182 183 184 188 191 192 192 194 198 202 202 202 202 202 203 204 204 201 199 197 196 194 192 191 193 195 194 186 171 152 137 132 135 135 132 135 134 129 125 112 93 76 66 62 55 48 41 34 27 22 20 17 15 14 13 14 14 13 12 13 15 17 17 16 15 14 14 15 15 17 18
233 229 224 213 201 198 197 192 189 200 212 202 189 182 183 185 186 190 193 195 197 199 201 204 205 205 205 206 208 210 211 211 209 209 207 205 200 198 201 204 206 203 194 179 163 154 157 161 156 151 148 146 141 125 97 69 54 44 35 27 21 17 15 12 10 9 8 8 9 9 9 10 10 11 14 15 16 15 14 13 13 13 14 15 15
228 225 222 214 209 205 199 197 193 194 209 215 206 193 186 187 187 189 194 197 200 204 206 206 206 208 209 210 213 214 215 216 217 217 216 214 212 211 212 214 217 220 218 212 198 187 187 190 200 202 193 193 182 158 105 60 39 26 15 6 2 2 2 1 1 2 3 4 5 5 5 6 9 11 13 14 15 14 13 12 12 12 12 12 12
223 220 217 213 213 210 201 199 198 195 203 216 218 207 195 192 190 188 195 200 202 206 210 210 208 208 211 214 216 217 218 219 220 222 220 219 220 221 224 226 228 232 232 232 228 221 220 219 225 231 234 239 240 231 228 351 7 5 358 352 352 354 355 355 357 360 2 2 1 1 2 5 8 10 11 12 13 13 12 11 11 10 10 10 10
221 220 218 216 215 214 207 203 201 198 200 207 218 220 208 200 195 192 196 202 205 207 209 210 210 210 211 215 218 219 220 222 223 224 224 223 224 226 230 232 234 237 240 241 240 238 238 237 237 238 239 243 248 249 254 270 311 336 339 342 348 352 355 356 357 0 1 360 359 359 1 4 7 8 9 11 12 12 11 10 10 9 8 8 8
220 222 222 222 221 220 217 212 208 202 199 201 213 223 219 207 199 198 202 204 206 207 206 206 209 212 213 215 217 219 221 224 226 228 229 230 231 232 234 237 239 241 243 243 244 244 245 247 248 247 245 245 247 252 258 265 285 308 320 330 343 351 353 353 353 355 356 356 356 357 360 2 4 5 7 9 11 11 10 9 9 8 7 6 7
221 223 223 224 226 226 224 222 217 208 201 199 206 215 218 213 204 201 206 208 208 208 207 205 205 209 214 215 216 217 220 223 227 229 232 233 234 235 237 241 243 244 245 245 246 247 248 251 254 256 254 251 250 253 258 262 271 289 303 314 330 340 343 342 342 345 349 353 354 355 357 359 0 3 4 7 10 10 9 9 8 7 6 5 6
220 222 221 222 225 226 226 228 227 219 210 205 204 209 214 215 210 206 207 210 211 210 211 210 207 207 211 215 217 217 218 221 224 227 230 232 234 236 239 243 244 244 245 246 248 250 252 254 256 257 258 255 253 252 254 256 260 274 287 299 314 326 330 331 331 335 342 347 350 352 353 355 357 359 1 5 8 9 8 8 7 7 6 4 4
219 220 219 221 224 225 225 229 230 228 224 216 209 209 213 216 216 213 210 210 212 212 212 213 212 210 211 214 217 217 217 219 222 225 227 229 232 236 239 242 243 244 245 246 248 251 254 255 256 257 257 255 253 251 251 250 253 262 275 285 299 312 320 323 323 328 335 340 345 348 349 351 353 355 358 2 5 7 7 7 7 7 6 5 3
218 220 220 222 224 225 225 227 230 231 229 225 218 213 213 216 218 217 213 212 214 215 215 214 214 214 214 215 217 217 217 220 223 225 227 228 230 233 237 239 241 243 244 246 248 250 253 255 256 257 257 255 253 249 249 247 248 255 265 275 287 300 311 316 316 320 326 332 339 344 345 347 348 351 355 358 2 5 6 6 6 6 7 5 2
219 220 222 223 224 226 226 225 228 230 230 230 228 222 218 218 219 219 217 216 218 219 219 218 217 217 219 220 220 219 218 220 224 227 228 229 231 232 235 238 240 242 244 247 249 250 253 256 257 258 257 256 254 250 248 246 246 250 259 268 277 290 303 307 306 311 317 324 332 339 342 344 345 348 352 355 359 1 3 5 4 4 6 6 2
219 220 223 225 225 226 227 225 226 229 231 234 234 229 226 224 223 223 221 221 221 223 225 224 222 220 222 224 227 226 223 221 223 227 229 230 231 233 234 237 239 242 244 246 248 251 253 256 258 258 258 257 255 252 249 247 246 249 256 264 272 283 295 298 297 300 309 317 325 333 338 341 342 345 348 352 355 358 0 2 2 2 5 6 3
219 220 222 224 226 227 227 225 225 227 229 231 233 232 231 228 227 226 226 225 225 226 228 229 227 225 224 226 230 232 230 227 225 227 229 231 232 233 235 237 239 241 244 246 248 250 253 256 258 259 259 259 259 256 252 249 248 250 256 263 268 279 289 292 291 294 301 309 317 325 333 337 339 342 345 348 351 354 356 359 359 359 2 5 4
221 221 222 222 224 224 224 224 224 226 228 229 231 232 232 232 231 231 231 230 229 228 229 231 231 228 227 228 231 233 235 232 230 229 231 232 233 234 235 237 238 241 244 245 248 251 253 256 258 259 259 260 261 260 255 251 251 252 256 262 266 274 283 288 288 290 296 303 309 316 323 329 334 338 342 344 346 349 352 354 355 356 358 2 3
222 221 221 221 221 222 224 225 227 227 228 229 230 232 233 234 236 237 237 235 234 232 231 232 233 231 229 229 231 234 237 236 234 233 234 234 235 235 236 237 238 241 242 245 247 250 252 255 257 258 259 260 261 261 258 255 253 253 256 261 265 270 277 284 287 289 293 299 304 309 314 320 326 331 336 340 342 344 347 349 350 351 354 358 0
222 221 221 221 221 221 223 226 227 228 229 231 232 233 234 236 238 240 240 240 239 238 236 234 234 233 232 230 230 233 237 237 236 236 237 238 238 238 237 237 239 240 242 243 245 248 251 254 256 257 258 260 261 262 261 257 254 254 255 260 264 267 273 280 285 289 292 296 301 304 308 313 317 322 329 334 337 339 341 344 345 346 348 352 357
221 221 221 222 222 222 223 225 226 228 230 232 233 234 235 236 239 241 241 241 241 241 240 239 236 235 235 233 231 232 236 238 237 235 237 239 241 241 240 239 239 240 241 242 244 245 248 251 253 255 257 259 260 262 262 259 256 255 255 259 263 267 270 276 282 287 291 294 298 302 305 309 312 315 320 326 331 333 335 338 339 340 342 346 351
218 219 220 222 222 223 223 225 226 228 230 232 233 234 235 236 238 239 240 240 241 241 242 241 239 238 237 236 234 233 234 238 239 237 236 238 240 242 243 242 241 241 242 243 243 244 245 248 251 253 256 257 259 260 260 260 258 256 256 258 262 266 269 273 279 284 288 292 295 299 304 307 308 310 313 318 324 328 330 332 334 334 335 338 343
216 216 218 220 222 223 224 225 226 227 229 230 231 232 233 235 237 239 240 241 242 243 243 242 240 240 239 238 236 234 233 236 239 240 239 238 239 241 243 244 244 244 243 244 244 244 244 246 249 251 254 256 257 258 259 260 259 258 257 258 261 264 268 271 276 280 284 288 292 297 301 305 307 307 307 310 316 322 324 326 327 327 328 329 333
216 217 218 220 221 222 224 224 225 227 229 230 231 232 233 235 237 240 241 243 244 244 244 244 243 242 241 240 239 236 234 234 238 241 242 241 239 239 241 244 246 246 246 246 246 245 245 245 248 250 253 255 257 258 260 260 261 260 259 259 261 263 266 269 273 277 281 285 289 293 298 302 304 304 304 305 308 315 319 320 321 321 321 322 324
216 217 218 219 220 221 223 224 226 228 230 232 234 235 235 236 237 239 240 242 243 244 244 245 245 245 243 241 241 239 236 234 235 239 242 243 243 241 241 242 245 246 247 247 247 247 246 246 247 249 252 254 256 258 260 261 261 262 261 261 261 263 265 268 270 274 277 281 286 290 294 298 301 302 302 301 303 308 313 315 316 315 315 316 317
213 214 215 217 219 221 224 226 228 229 231 233 234 235 236 236 237 240 242 244 246 247 247 247 247 246 244 243 242 240 238 236 235 236 239 243 245 245 244 242 243 245 247 248 248 248 248 246 246 248 250 252 254 257 258 260 261 261 262 262 262 263 265 267 270 272 275 279 282 286 290 293 296 298 299 299 300 303 307 311 311 310 310 310 312
211 212 214 216 219 221 224 226 227 228 230 232 234 236 238 239 242 244 245 246 248 248 248 248 248 247 246 244 243 241 239 238 236 236 237 240 243 245 246 245 244 244 246 247 248 248 248 248 248 249 251 252 253 254 256 258 259 261 262 262 262 263 265 267 269 271 274 277 280 283 286 289 292 295 295 296 297 299 302 306 307 307 306 306 307
212 212 214 216 219 221 223 224 226 227 230 232 235 237 239 241 243 244 245 247 247 247 247 247 247 247 246 245 244 242 240 238 237 236 236 238 240 242 244 245 245 245 245 246 248 248 249 249 250 251 252 252 253 253 255 257 258 260 261 262 262 263 265 267 269 271 273 275 277 280 282 284 287 291 292 293 294 297 300 302 304 304 303 303 303
213 213 215 216 218 220 222 224 226 228 230 232 234 236 238 241 243 244 246 247 247 247 247 246 245 245 244 243 242 242 240 239 237 236 236 237 239 241 243 244 246 246 247 248 248 248 249 250 251 252 253 253 253 253 254 255 257 258 259 261 262 263 265 267 269 271 272 274 276 278 279 281 284 287 289 290 291 294 297 299 300 300 300 300 299
215 215 216 217 219 221 222 224 226 228 230 232 235 237 239 241 243 245 246 247 247 246 246 245 244 243 243 243 242 241 240 239 238 237 236 237 239 240 242 244 245 247 249 250 249 248 248 249 251 251 252 252 253 253 254 254 255 256 258 260 261 263 265 266 268 269 271 272 274 275 277 279 281 284 286 287 289 292 295 297 298 297 297 297 296
216 217 218 219 221 222 223 224 226 228 230 232 236 238 239 241 243 245 246 247 246 245 245 245 244 243 243 242 242 242 241 240 239 237 237 237 238 240 242 244 245 246 248 249 249 248 248 248 248 249 250 251 252 252 253 254 255 256 257 259 260 262 263 265 266 268 270 271 272 273 275 277 279 282 284 286 287 290 293 295 296 295 294 294 294
217 218 219 220 221 223 223 225 227 229 230 232 234 236 237 240 242 244 244 245 245 244 244 243 243 244 244 244 244 243 242 241 240 239 238 238 238 239 241 243 244 245 245 245 246 247 247 247 247 247 248 249 250 251 253 254 256 257 257 258 260 261 262 264 265 267 268 270 271 272 274 276 278 280 282 284 287 289 291 293 293 292 292 292 292
219 220 220 221 221 223 224 226 228 229 230 232 234 235 236 238 241 242 242 242 242 242 242 242 243 244 245 245 245 244 243 242 241 240 240 239 239 239 240 241 243 243 244 244 244 246 247 248 249 249 250 250 251 251 252 254 255 257 258 259 260 261 262 264 265 266 267 268 270 271 273 275 277 279 281 283 286 288 289 291 290 290 290 290 290
219 220 221 221 222 223 225 226 228 229 231 233 234 235 236 238 240 241 241 241 242 243 243 242 242 243 243 243 244 244 244 243 242 242 242 241 240 239 239 240 241 242 243 244 244 245 245 246 249 251 253 253 253 253 252 253 254 256 258 259 260 261 263 264 265 266 266 268 269 271 273 275 276 278 280 282 285 287 288 288 288 288 289 289 289
219 220 221 222 223 225 226 228 229 230 232 234 235 236 237 240 241 241 241 242 243 244 243 242 242 242 243 243 244 245 246 245 244 244 243 242 241 240 239 240 241 242 243 243 244 244 245 246 248 251 254 256 257 256 254 253 253 255 256 258 259 260 261 262 263 265 266 267 269 270 272 274 276 277 279 281 283 284 286 286 287 287 288 288 288
221 221 222 223 224 225 227 228 229 231 233 234 235 236 238 239 240 240 241 242 243 243 243 243 243 243 244 245 246 247 247 247 246 245 244 244 243 242 241 240 241 242 242 243 243 244 245 247 248 251 253 256 258 259 257 255 254 255 256 257 259 260 261 262 263 264 265 267 268 270 271 273 275 276 278 279 280 282 283 284 285 286 286 287 287
221 222 223 224 225 226 228 229 230 231 233 234 234 236 237 238 238 239 240 241 242 243 243 244 244 245 246 247 248 248 249 249 248 247 246 245 244 243 242 241 241 241 242 243 244 245 246 247 249 250 252 254 256 258 259 258 256 256 257 258 260 261 262 264 264 266 267 268 269 270 271 273 274 276 277 277 278 279 280 282 284 285 285 286 286
222 222 224 225 227 228 229 230 231 231 232 233 234 235 236 237 238 238 239 241 242 243 243 244 244 245 246 247 248 248 248 248 248 248 247 246 245 244 243 242 242 242 242 243 244 245 247 248 249 250 252 254 255 258 260 261 260 260 260 261 263 264 266 267 268 269 270 270 271 272 274 274 275 275 276 277 278 279 280 281 282 283 283 283 284
222 223 225 226 227 229 230 231 231 232 232 233 234 235 236 236 237 237 238 240 242 243 243 243 243 244 244 245 246 245 244 244 245 246 246 246 246 245 244 244 243 243 243 243 244 245 246 248 250 251 253 255 256 258 260 262 263 264 265 267 268 269 270 271 271 272 273 273 274 274 275 275 275 275 276 277 279 279 280 281 281 281 281 281 282
224 224 225 226 227 229 230 231 232 233 233 233 234 235 235 235 235 236 237 239 241 242 242 241 241 241 242 243 243 244 244 244 244 244 244 245 245 245 245 244 244 243 243 244 244 245 247 248 250 252 254 255 257 258 260 262 264 267 269 271 272 273 273 274 274 274 275 275 275 275 276 276 276 276 277 278 279 279 279 279 279 279 280 281 282
225 225 226 227 228 229 230 232 233 234 234 234 234 234 234 234 234 235 236 238 239 240 241 241 241 241 242 243 244 245 246 246 246 245 244 243 243 243 243 243 243 244 244 245 245 246 247 248 250 251 253 255 256 258 260 261 264 266 268 270 272 273 275 275 275 275 275 276 276 276 276 276 277 277 277 277 277 277 278 278 279 280 281 281 282
227 227 227 228 228 230 231 232 233 234 234 234 234 234 233 233 233 234 235 237 239 240 241 242 243 243 243 244 244 245 246 246 247 247 246 244 243 242 242 242 243 243 244 245 246 247 247 249 250 251 252 254 255 257 258 260 261 263 265 267 269 271 272 273 274 274 274 275 275 276 277 277 277 277 277 276 276 277 277 279 280 280 281 281 282
227 228 228 228 229 230 231 232 233 233 233 233 233 233 232 232 232 233 235 236 238 240 242 243 244 244 244 244 244 245 246 246 246 246 246 246 245 244 243 243 243 243 244 244 245 246 248 249 250 251 252 253 254 256 257 259 260 262 263 265 266 267 268 270 271 272 272 274 275 277 277 277 277 277 276 276 277 277 278 279 280 280 280 281 282
228 229 229 229 230 230 231 231 232 232 232 233 233 232 231 231 231 232 234 236 238 240 242 244 244 244 244 245 245 245 246 246 246 246 245 245 246 246 246 246 246 246 246 246 247 247 248 249 250 252 253 253 254 255 257 258 260 261 262 263 263 264 265 266 266 268 270 272 274 276 277 277 277 276 276 276 276 277 278 278 279 280 281 282 282
Height
10991 10992 10993 10994 10993 10993 10992 10992 10993 10994 10994 10995 10996 10996 10997 10998 10998 11000 11001 11002 11004 11006 11008 11009 11010 11011 11012 11013 11014 11014 11015 11016 11017 11017 11018 11019 11019 11020 11020 11020 11021 11021 11021 11020 11021 11021 11021 11021 11021 11021 11021 11021 11021 11020 11020 11019 11018 11017 11016 11016 11015 11014 11014 11014 11013 11012 11011 11010 11010 11009 11008 11007 11006 11004 11003 11002 11001 11000 10999 10997 10995 10993 10991 10988 10986
10990 10991 10993 10994 10993 10993 10992 10992 10993 10994 10995 10996 10996 10996 10997 10998 10999 11000 11002 11003 11004 11006 11008 11009 11010 11012 11013 11014 11014 11015 11016 11017 11018 11019 11019 11020 11021 11021 11021 11022 11022 11022 11022 11022 11022 11023 11023 11023 11023 11022 11022 11022 11022 11022 11021 11020 11019 11018 11018 11017 11017 11016 11016 11015 11015 11014 11013 11012 11012 11011 11010 11009 11008 11006 11005 11004 11003 11001 11000 10997 10995 10993 10991 10988 10986
10989 10990 10992 10993 10994 10993 10993 10992 10993 10994 10995 10996 10997 10997 10997 10999 10999 11000 11002 11003 11005 11006 11008 11010 11011 11012 11014 11015 11016 11016 11017 11018 11019 11020 11021 11021 11022 11023 11023 11023 11024 11024 11024 11024 11024 11024 11025 11025 11024 11024 11024 11024 11024 11023 11022 11021 11021 11020 11019 11019 11019 11018 11017 11017 11017 11015 11015 11015 11014 11013 11012 11010 11009 11008 11007 11005 11004 11002 11000 10998 10996 10994 10991 10989 10986
10988 10989 10990 10992 10994 10993 10993 10993 10993 10994 10995 10996 10997 10997 10998 10999 11000 11001 11002 11003 11005 11007 11008 11010 11012 11013 11015 11016 11017 11018 11019 11019 11020 11021 11022 11023 11023 11024 11024 11025 11025 11025 11025 11025 11025 11026 11026 11026 11026 11026 11026 11026 11026 11025 11024 11023 11022 11022 11021 11021 11020 11020 11019 11019 11018 11017 11017 11016 11015 11014 11013 11012 11011 11010 11008 11007 11005 11003 11001 10999 10996 10994 10992 10989 10987
10987 10988 10989 10991 10993 10993 10993 10993 10993 10993 10994 10996 10997 10998 10998 10999 11001 11002 11003 11004 11005 11007 11009 11010 11012 11014 11015 11017 11018 11019 11020 11021 11021 11022 11023 11023 11024 11025 11025 11026 11026 11026 11026 11026 11026 11027 11027 11028 11028 11028 11028 11028 11028 11027 11026 11025 11025 11024 11023 11023 11022 11022 11021 11021 11020 11019 11018 11018 11017 11016 11015 11014 11012 11011 11009 11008 11006 11004 11002 10999 10996 10994 10992 10989 10987
10986 10987 10988 10990 10992 10993 10993 10993 10993 10993 10994 10995 10997 10998 10999 10999 11000 11002 11003 11004 11006 11007 11009 11011 11013 11014 11016 11017 11019 11020 11020 11021 11022 11023 11024 11024 11025 11026 11026 11027 11027 11028 11027 11027 11027 11028 11029 11029 11029 11029 11029 11029 11029 11029 11028 11027 11026 11026 11025 11025 11024 11023 11023 11022 11021 11021 11020 11019 11018 11017 11016 11015 11013 11012 11010 11008 11006 11004 11002 10999 10997 10995 10992 10990 10988
10984 10986 10987 10989 10991 10993 10993 10993 10993 10993 10994 10995 10996 10998 10999 11000 11000 11002 11003 11005 11006 11008 11009 11011 11013 11014 11016 11017 11018 11019 11020 11021 11022 11023 11024 11025 11026 11027 11027 11028 11028 11029 11028 11028 11028 11029 11030 11030 11031 11031 11031 11031 11031 11030 11029 11029 11028 11027 11027 11026 11025 11025 11024 11023 11022 11022 11021 11020 11019 11018 11017 11016 11014 11013 11011 11009 11007 11005 11002 11000 10998 10995 10993 10991 10989
10983 10985 10986 10988 10990 10991 10993 10993 10993 10993 10994 10995 10996 10997 10999 11000 11001 11001 11003 11005 11007 11008 11009 11011 11013 11014 11015 11016 11017 11019 11020 11021 11022 11023 11024 11025 11026 11027 11028 11028 11029 11029 11029 11029 11029 11030 11031 11032 11032 11032 11032 11032 11032 11031 11031 11030 11029 11029 11028 11027 11027 11026 11025 11024 11023 11023 11022 11021 11020 11019 11018 11016 11015 11014 11012 11010 11008 11005 11003 11001 10998 10996 10994 10992 10990
10982 10983 10984 10986 10988 10990 10992 10992 10992 10993 10993 10995 10996 10997 10998 11000 11001 11001 11003 11005 11007 11008 11009 11011 11012 11013 11014 11016 11017 11019 11020 11022 11023 11024 11025 11026 11026 11027 11028 11028 11029 11030 11030 11030 11030 11031 11032 11033 11033 11033 11033 11033 11032 11032 11032 11031 11030 11029 11029 11028 11028 11027 11026 11025 11024 11023 11023 11022 11021 11020 11019 11017 11016 11014 11013 11011 11009 11007 11004 11002 10999 10997 10995 10993 10991
10982 10983 10983 10985 10986 10988 10990 10992 10992 10992 10993 10994 10995 10996 10998 10999 11001 11001 11002 11004 11006 11008 11009 11010 11011 11012 11014 11016 11017 11019 11020 11022 11023 11024 11025 11026 11027 11028 11028 11029 11029 11030 11030 11030 11030 11031 11032 11033 11034 11034 11034 11033 11033 11033 11032 11032 11031 11030 11029 11029 11028 11027 11027 11026 11025 11024 11023 11022 11022 11021 11020 11018 11017 11016 11014 11012 11010 11008 11005 11003 11000 10998 10995 10993 10991
10981 10982 10982 10983 10985 10987 10989 10990 10992 10992 10992 10993 10994 10996 10997 10998 11000 11001 11002 11003 11005 11007 11008 11009 11010 11012 11014 11016 11018 11019 11020 11021 11023 11024 11025 11026 11027 11028 11028 11029 11030 11030 11030 11030 11031 11031 11032 11033 11034 11034 11034 11034 11033 11033 11033 11032 11031 11031 11030 11029 11028 11028 11027 11027 11026 11025 11024 11023 11022 11022 11021 11019 11018 11016 11015 11013 11011 11008 11006 11003 11001 10998 10996 10994 10992
10980 10980 10981 10982 10983 10985 10987 10989 10990 10992 10992 10993 10994 10995 10996 10998 10999 11001 11002 11003 11004 11006 11007 11008 11010 11012 11014 11015 11017 11018 11020 11021 11023 11024 11025 11025 11026 11027 11028 11029 11029 11030 11030 11031 11031 11031 11032 11033 11033 11034 11034 11034 11034 11033 11033 11032 11032 11031 11030 11029 11029 11028 11028 11027 11027 11026 11025 11024 11023 11022 11021 11020 11019 11017 11015 11013 11011 11009 11006 11004 11001 10999 10996 10994 10993
10979 10979 10980 10981 10982 10983 10985 10987 10989 10990 10992 10992 10993 10994 10995 10997 10998 11000 11001 11003 11004 11005 11006 11008 11010 11012 11013 11015 11016 11018 11019 11021 11022 11023 11024 11025 11026 11027 11028 11029 11029 11030 11031 11031 11031 11032 11032 11033 11033 11033 11033 11033 11033 11033 11033 11032 11032 11031 11030 11030 11029 11028 11028 11027 11027 11026 11025 11024 11023 11022 11021 11020 11019 11017 11016 11014 11011 11009 11007 11005 11002 11000 10997 10996 10994
10977 10978 10979 10980 10980 10981 10983 10985 10987 10989 10990 10991 10992 10993 10994 10996 10997 10999 11001 11002 11003 11004 11005 11007 11010 11011 11013 11014 11016 11017 11019 11020 11022 11023 11024 11025 11026 11027 11027 11028 11029 11030 11030 11031 11031 11031 11032 11032 11033 11033 11033 11033 11033 11033 11032 11032 11031 11031 11030 11029 11029 11028 11028 11027 11027 11026 11025 11024 11023 11022 11021 11020 11019 11017 11016 11014 11012 11010 11007 11005 11003 11001 10999 10997 10995
10974 10975 10977 10978 10979 10979 10981 10982 10984 10986 10988 10990 10991 10992 10993 10994 10996 10998 10999 11001 11002 11004 11005 11007 11009 11010 11012 11013 11015 11017 11018 11020 11021 11023 11024 11025 11026 11027 11027 11028 11029 11029 11030 11030 11031 11031 11032 11032 11032 11033 11033 11033 11033 11033 11032 11032 11031 11031 11030 11029 11029 11028 11027 11027 11026 11026 11025 11024 11023 11022 11021 11020 11018 11017 11016 11014 11012 11010 11008 11006 11004 11002 11000 10998 10997
10970 10972 10974 10975 10976 10977 10979 10980 10982 10984 10986 10988 10990 10991 10992 10993 10995 10997 10998 11000 11001 11003 11005 11006 11008 11009 11010 11012 11014 11016 11018 11019 11020 11022 11023 11025 11025 11026 11027 11027 11028 11028 11029 11029 11030 11031 11031 11032 11032 11032 11032 11032 11033 11032 11032 11032 11031 11031 11030 11029 11029 11028 11028 11027 11026 11026 11025 11025 11023 11022 11021 11020 11019 11017 11016 11015 11013 11011 11009 11008 11006 11003 11001 11000 10998
10967 10969 10971 10973 10974 10975 10977 10978 10980 10981 10983 10986 10988 10990 10991 10992 10994 10995 10997 10998 11000 11002 11003 11005 11007 11008 11009 11011 11012 11014 11016 11018 11020 11021 11023 11023 11024 11025 11026 11026 11027 11028 11028 11029 11029 11030 11030 11031 11031 11032 11032 11032 11032 11032 11032 11031 11031 11030 11030 11029 11029 11028 11028 11027 11026 11026 11025 11025 11024 11023 11022 11020 11019 11018 11017 11015 11014 11012 11010 11009 11007 11005 11003 11000 10999
10963 10966 10969 10971 10972 10974 10976 10977 10978 10980 10981 10983 10986 10988 10990 10991 10992 10994 10995 10997 10998 11000 11002 11004 11005 11006 11008 11009 11011 11012 11014 11016 11018 11020 11021 11022 11023 11024 11024 11025 11026 11026 11027 11028 11028 11029 11030 11030 11031 11031 11031 11031 11031 11031 11031 11031 11031 11030 11029 11029 11028 11028 11028 11027 11026 11026 11025 11024 11024 11023 11022 11021 11020 11018 11017 11016 11014 11013 11011 11010 11008 11006 11003 11001 10999
10960 10963 10966 10968 10969 10971 10973 10975 10977 10978 10979 10980 10983 10985 10987 10989 10990 10991 10993 10995 10997 10999 11001 11002 11003 11005 11006 11008 11009 11011 11013 11015 11016 11018 11019 11020 11021 11022 11023 11024 11025 11025 11026 11027 11027 11028 11029 11029 11030 11030 11030 11030 11030 11030 11030 11030 11030 11030 11029 11028 11028 11028 11027 11027 11026 11026 11025 11024 11024 11023 11022 11021 11020 11018 11017 11016 11015 11013 11012 11010 11009 11006 11004 11002 10999
10956 10959 10962 10964 10966 10968 10971 10973 10975 10977 10978 10979 10980 10982 10985 10987 10988 10989 10991 10993 10995 10996 10998 10999 11001 11003 11004 11006 11007 11009 11011 11012 11013 11015 11016 11018 11019 11020 11021 11022 11023 11024 11024 11025 11026 11027 11028 11028 11029 11029 11029 11029 11029 11029 11029 11029 11029 11029 11028 11028 11028 11027 11027 11026 11026 11025 11025 11024 11024 11023 11022 11021 11020 11019 11017 11016 11015 11014 11012 11010 11009 11007 11004 11002 10999
10952 10956 10958 10960 10963 10965 10968 10971 10973 10975 10976 10977 10978 10979 10982 10984 10986 10987 10989 10990 10992 10993 10995 10997 10999 11001 11002 11003 11005 11006 11008 11010 11011 11012 11014 11015 11017 11018 11019 11020 11021 11022 11023 11024 11025 11026 11026 11027 11027 11028 11028 11028 11028 11028 11028 11028 11028 11028 11028 11027 11027 11027 11026 11026 11025 11025 11024 11024 11024 11023 11022 11021 11020 11019 11017 11016 11015 11013 11012 11010 11009 11007 11005 11002 10999
10948 10951 10954 10957 10960 10962 10965 10968 10970 10972 10973 10974 10976 10977 10979 10981 10983 10985 10987 10988 10989 10991 10992 10994 10996 10998 11000 11001 11003 11004 11006 11007 11008 11010 11011 11013 11014 11015 11016 11017 11018 11020 11021 11022 11023 11024 11025 11025 11026 11026 11027 11027 11027 11027 11027 11027 11027 11027 11027 11026 11026 11026 11025 11025 11024 11024 11024 11023 11023 11023 11022 11021 11019 11018 11017 11016 11015 11013 11012 11010 11008 11007 11004 11002 11000
10944 10947 10950 10953 10956 10959 10962 10965 10967 10969 10971 10972 10974 10975 10976 10978 10980 10982 10984 10985 10987 10988 10990 10992 10994 10996 10998 11000 11001 11002 11003 11005 11006 11007 11009 11010 11011 11013 11014 11015 11016 11018 11019 11020 11021 11022 11023 11023 11024 11025 11025 11025 11025 11025 11025 11025 11025 11026 11025 11025 11025 11025 11025 11024 11023 11023 11022 11022 11022 11022 11021 11020 11019 11018 11017 11016 11014 11013 11011 11010 11008 11006 11004 11002 11000
10939 10943 10946 10949 10953 10956 10959 10962 10963 10965 10967 10969 10971 10972 10974 10975 10977 10979 10981 10983 10984 10986 10987 10989 10991 10993 10996 10997 10999 10999 11001 11002 11004 11005 11006 11007 11009 11010 11011 11012 11014 11015 11016 11017 11019 11019 11020 11021 11022 11023 11023 11023 11023 11024 11024 11024 11024 11024 11024 11024 11024 11023 11023 11023 11022 11022 11021 11021 11021 11021 11021 11020 11018 11017 11016 11015 11014 11012 11011 11009 11008 11006 11004 11002 11000
10936 10939 10943 10946 10949 10952 10955 10956 10958 10961 10963 10965 10967 10969 10971 10972 10974 10976 10978 10980 10982 10983 10985 10986 10988 10990 10992 10994 10995 10997 10998 10999 11001 11003 11003 11005 11006 11007 11008 11010 11011 11012 11013 11015 11016 11017 11018 11019 11020 11021 11021 11021 11021 11022 11022 11022 11022 11022 11022 11022 11022 11022 11022 11022 11021 11020 11020 11020 11020 11020 11019 11019 11018 11016 11015 11014 11013 11012 11010 11009 11007 11006 11004 11002 10999
10932 10936 10939 10943 10946 10948 10950 10952 10954 10957 10960 10962 10964 10966 10968 10969 10971 10973 10975 10977 10979 10980 10982 10983 10985 10987 10989 10990 10992 10993 10994 10996 10998 11000 11001 11002 11003 11004 11006 11007 11008 11009 11010 11012 11013 11014 11015 11016 11017 11018 11018 11018 11019 11019 11020 11020 11020 11020 11020 11020 11020 11020 11020 11020 11020 11019 11018 11018 11018 11018 11018 11017 11017 11016 11014 11013 11012 11011 11010 11008 11007 11005 11003 11001 10999
10928 10932 10936 10939 10942 10944 10946 10948 10950 10953 10956 10958 10961 10963 10965 10967 10968 10970 10972 10974 10975 10977 10978 10980 10982 10983 10985 10986 10988 10989 10991 10993 10995 10998 10999 11000 11000 11001 11003 11004 11005 11006 11007 11008 11010 11011 11012 11013 11014 11014 11015 11015 11016 11017 11018 11018 11018 11018 11018 11018 11018 11018 11019 11018 11018 11018 11017 11017 11016 11016 11016 11016 11015 11014 11013 11012 11011 11010 11009 11008 11006 11005 11003 11001 10999
10925 10929 10932 10935 10937 10940 10941 10943 10946 10949 10952 10955 10958 10960 10962 10964 10965 10968 10969 10970 10972 10973 10975 10977 10978 10980 10981 10982 10984 10986 10987 10989 10992 10994 10996 10997 10997 10998 10999 11001 11002 11003 11004 11005 11006 11008 11009 11010 11010 11011 11011 11012 11013 11014 11015 11015 11016 11016 11016 11016 11016 11016 11016 11016 11016 11016 11016 11015 11015 11014 11014 11014 11013 11013 11012 11011 11010 11009 11008 11007 11006 11004 11002 11000 10998
10919 10924 10927 10930 10933 10935 10937 10940 10942 10945 10948 10951 10954 10956 10958 10960 10962 10964 10965 10967 10968 10969 10971 10973 10975 10976 10977 10979 10981 10983 10984 10986 10988 10990 10992 10993 10994 10995 10996 10997 10998 10999 11000 11002 11003 11004 11006 11006 11007 11008 11008 11009 11010 11011 11012 11013 11013 11013 11013 11013 11013 11013 11014 11014 11014 11014 11014 11013 11013 11013 11012 11012 11011 11011 11010 11009 11008 11007 11006 11005 11004 11003 11001 10999 10997
10913 10917 10921 10924 10928 10930 10933 10935 10938 10940 10943 10946 10948 10951 10953 10956 10958 10960 10962 10963 10964 10966 10967 10969 10970 10971 10973 10975 10977 10979 10981 10983 10984 10986 10987 10989 10990 10992 10993 10993 10994 10995 10997 10998 10999 11001 11002 11003 11004 11004 11005 11005 11007 11008 11009 11009 11010 11010 11011 11011 11011 11011 11011 11011 11012 11011 11011 11011 11011 11011 11010 11010 11010 11009 11008 11008 11007 11006 11005 11004 11002 11001 11000 10998 10996
10908 10912 10916 10920 10923 10925 10927 10930 10933 10935 10938 10940 10943 10946 10948 10952 10954 10956 10958 10960 10961 10962 10963 10964 10966 10968 10970 10972 10974 10975 10977 10979 10980 10981 10983 10984 10986 10988 10989 10990 10991 10992 10993 10994 10996 10997 10998 10999 11000 11001 11001 11002 11003 11005 11006 11006 11006 11007 11008 11008 11008 11008 11008 11008 11009 11009 11009 11008 11008 11008 11008 11008 11007 11007 11006 11006 11005 11004 11003 11002 11001 10999 10998 10996 10995
10903 10907 10912 10915 10918 10920 10922 10925 10927 10930 10933 10936 10938 10941 10944 10947 10949 10951 10953 10955 10957 10958 10959 10961 10962 10964 10966 10968 10969 10971 10973 10975 10976 10977 10978 10979 10981 10983 10984 10985 10986 10988 10989 10991 10992 10993 10995 10996 10997 10997 10997 10999 11000 11002 11002 11002 11003 11004 11004 11004 11004 11004 11005 11005 11006 11006 11006 11006 11005 11005 11005 11005 11005 11004 11004 11003 11003 11002 11001 11000 10999 10997 10996 10994 10992
10897 10901 10905 10908 10911 10914 10916 10919 10922 10926 10928 10931 10933 10936 10939 10942 10944 10946 10949 10951 10952 10954 10956 10957 10959 10960 10962 10964 10965 10967 10968 10970 10972 10973 10974 10976 10977 10978 10979 10980 10982 10983 10985 10986 10988 10989 10991 10992 10993 10993 10994 10995 10997 10998 10998 10999 11000 11000 11000 11001 11001 11001 11001 11002 11002 11003 11003 11003 11003 11002 11002 11001 11001 11001 11001 11000 11000 11000 10999 10997 10996 10995 10994 10992 10990
10890 10894 10897 10900 10904 10907 10910 10913 10917 10920 10923 10925 10929 10932 10934 10937 10940 10943 10945 10946 10948 10950 10952 10953 10955 10956 10958 10959 10961 10962 10964 10965 10967 10969 10971 10972 10972 10973 10974 10975 10977 10979 10980 10981 10983 10985 10987 10988 10989 10990 10990 10992 10993 10994 10994 10995 10996 10996 10996 10997 10997 10997 10997 10998 10999 10999 10999 11000 11000 10999 10999 10998 10998 10997 10997 10997 10997 10996 10996 10995 10993 10992 10991 10989 10988
10882 10886 10890 10894 10897 10900 10903 10906 10910 10914 10917 10921 10924 10927 10930 10933 10936 10938 10939 10941 10943 10945 10947 10948 10950 10952 10953 10955 10956 10957 10959 10961 10962 10964 10966 10967 10967 10968 10969 10971 10973 10974 10975 10976 10978 10980 10982 10983 10985 10986 10987 10987 10988 10990 10991 10991 10992 10992 10992 10992 10992 10993 10994 10994 10995 10995 10995 10995 10996 10996 10995 10995 10994 10994 10993 10993 10993 10993 10993 10992 10991 10989 10987 10986 10985
10876 10881 10884 10887 10890 10893 10897 10901 10904 10908 10913 10916 10919 10921 10925 10928 10930 10932 10934 10936 10938 10940 10942 10943 10945 10947 10948 10949 10950 10952 10953 10955 10957 10959 10960 10961 10962 10963 10965 10967 10968 10969 10971 10972 10974 10975 10977 10979 10980 10982 10982 10983 10984 10986 10986 10987 10987 10988 10987 10987 10988 10989 10990 10990 10990 10991 10991 10991 10991 10991 10991 10991 10991 10990 10990 10989 10989 10989 10989 10989 10988 10986 10984 10983 10982
10871 10875 10878 10880 10883 10887 10892 10897 10900 10904 10908 10911 10914 10917 10921 10923 10925 10927 10929 10931 10933 10935 10936 10938 10939 10941 10942 10944 10945 10946 10948 10950 10952 10953 10954 10955 10957 10958 10961 10963 10964 10965 10967 10968 10970 10971 10973 10974 10975 10976 10977 10978 10979 10981 10981 10982 10982 10983 10983 10982 10983 10985 10985 10986 10986 10986 10986 10987 10987 10987 10986 10986 10986 10986 10986 10985 10985 10985 10985 10984 10984 10983 10981 10980 10979
10866 10868 10871 10875 10880 10884 10889 10892 10895 10899 10903 10907 10909 10912 10916 10918 10919 10921 10924 10926 10928 10930 10931 10932 10934 10935 10936 10938 10940 10942 10943 10945 10946 10947 10948 10950 10952 10954 10957 10958 10960 10961 10963 10964 10966 10967 10968 10969 10970 10971 10971 10972 10974 10976 10976 10977 10977 10978 10978 10978 10979 10980 10980 10981 10982 10982 10982 10982 10982 10982 10982 10982 10982 10982 10981 10981 10981 10980 10980 10980 10980 10979 10978 10977 10976
10859 10862 10867 10872 10877 10880 10884 10887 10890 10894 10899 10901 10903 10907 10911 10912 10913 10916 10919 10921 10922 10924 10925 10926 10928 10929 10931 10933 10935 10937 10938 10939 10940 10941 10943 10945 10947 10950 10952 10954 10955 10957 10958 10960 10961 10961 10962 10963 10964 10965 10965 10967 10969 10970 10971 10971 10972 10972 10973 10973 10974 10975 10975 10976 10977 10977 10977 10977 10977 10977 10977 10977 10978 10978 10977 10976 10976 10976 10976 10976 10975 10974 10973 10973 10972
10853 10859 10864 10868 10872 10876 10879 10882 10885 10889 10893 10895 10898 10902 10905 10906 10907 10911 10913 10914 10916 10917 10919 10921 10923 10925 10926 10928 10929 10931 10932 10933 10934 10936 10938 10941 10943 10945 10947 10948 10950 10951 10953 10954 10955 10956 10957 10958 10959 10960 10960 10962 10964 10965 10965 10966 10967 10967 10967 10968 10969 10970 10970 10971 10972 10972 10972 10972 10972 10972 10972 10973 10973 10973 10973 10972 10971 10970 10971 10971 10970 10969 10969 10968 10967
10849 10854 10859 10863 10867 10870 10873 10876 10880 10883 10886 10889 10893 10897 10899 10899 10902 10905 10906 10907 10909 10912 10914 10916 10918 10919 10920 10921 10923 10924 10926 10927 10929 10932 10934 10935 10937 10939 10941 10942 10944 10946 10948 10949 10950 10951 10952 10953 10954 10955 10956 10957 10959 10960 10960 10961 10961 10961 10961 10962 10963 10964 10965 10966 10967 10967 10966 10966 10967 10967 10967 10968 10968 10968 10968 10967 10966 10965 10965 10965 10965 10964 10964 10963 10962
10844 10848 10853 10858 10861 10865 10868 10872 10875 10877 10881 10885 10889 10891 10891 10893 10896 10898 10899 10901 10904 10907 10909 10910 10911 10912 10914 10915 10917 10919 10921 10923 10925 10927 10928 10930 10932 10933 10935 10937 10939 10941 10943 10944 10945 10946 10947 10948 10949 10950 10951 10952 10954 10955 10955 10955 10955 10955 10955 10956 10957 10958 10959 10960 10960 10960 10960 10961 10961 10962 10962 10962 10962 10962 10963 10963 10962 10960 10959 10959 10959 10959 10958 10958 10957
10838 10843 10848 10852 10856 10860 10863 10866 10869 10872 10876 10880 10882 10883 10885 10887 10889 10890 10893 10896 10899 10901 10902 10904 10905 10907 10909 10911 10913 10915 10916 10918 10920 10921 10923 10924 10926 10928 10930 10932 10934 10936 10937 10938 10939 10940 10941 10943 10944 10945 10946 10947 10949 10950 10950 10949 10949 10949 10949 10949 10950 10951 10953 10954 10954 10954 10954 10955 10956 10956 10956 10957 10957 10957 10957 10957 10957 10956 10954 10953 10954 10954 10953 10952 10951
10832 10837 10841 10845 10850 10854 10857 10860 10864 10868 10871 10874 10875 10876 10878 10880 10882 10885 10888 10891 10893 10895 10897 10898 10900 10902 10904 10906 10908 10910 10911 10913 10914 10916 10917 10919 10921 10922 10924 10926 10928 10929 10931 10932 10933 10934 10936 10937 10938 10939 10941 10942 10943 10945 10945 10944 10944 10944 10944 10944 10944 10946 10947 10948 10948 10949 10949 10950 10950 10950 10950 10951 10951 10951 10951 10951 10951 10951 10950 10949 10948 10948 10948 10947 10946
10826 10831 10835 10839 10843 10848 10851 10855 10859 10862 10865 10867 10867 10869 10871 10873 10877 10881 10883 10886 10888 10890 10892 10894 10896 10897 10899 10901 10903 10904 10906 10907 10908 10910 10912 10913 10915 10916 10918 10920 10921 10923 10924 10925 10927 10928 10929 10931 10933 10934 10935 10937 10938 10939 10939 10939 10938 10938 10938 10938 10939 10940 10942 10943 10943 10943 10944 10944 10945 10945 10945 10945 10946 10946 10945 10945 10945 10945 10944 10944 10943 10943 10942 10942 10941
10820 10825 10829 10833 10837 10842 10846 10849 10853 10856 10858 10859 10861 10863 10866 10869 10872 10875 10878 10881 10883 10885 10887 10889 10891 10892 10893 10895 10896 10898 10899 10901 10903 10904 10906 10907 10909 10910 10912 10913 10915 10916 10917 10919 10920 10922 10923 10925 10927 10928 10930 10932 10933 10934 10934 10934 10934 10933 10933 10934 10934 10935 10936 10936 10937 10937 10938 10939 10939 10939 10940 10940 10940 10940 10939 10939 10938 10939 10939 10938 10938 10938 10937 10936 10935
10814 10819 10823 10827 10831 10835 10839 10843 10847 10850 10851 10852 10854 10857 10859 10863 10866 10869 10873 10875 10877 10879 10881 10883 10884 10885 10887 10889 10890 10892 10893 10895 10897 10898 10900 10902 10903 10904 10905 10907 10907 10909 10910 10912 10913 10916 10918 10920 10922 10923 10925 10927 10928 10928 10929 10929 10929 10929 10929 10929 10930 10930 10930 10930 10930 10931 10932 10933 10933 10934 10934 10934 10934 10934 10933 10933 10932 10932 10932 10932 10932 10932 10931 10930 10930
10807 10812 10816 10820 10824 10828 10833 10837 10841 10843 10844 10845 10847 10850 10853 10857 10860 10863 10867 10869 10871 10873 10875 10876 10878 10880 10882 10883 10885 10887 10889 10890 10891 10893 10894 10895 10896 10897 10898 10899 10900 10902 10904 10906 10908 10910 10912 10914 10916 10918 10920 10921 10922 10923 10923 10924 10925 10925 10925 10925 10925 10924 10925 10924 10924 10925 10926 10927 10927 10927 10928 10928 10928 10928 10928 10927 10926 10926 10926 10926 10926 10926 10925 10925 10924
10799 10804 10809 10814 10818 10821 10826 10830 10833 10835 10836 10837 10840 10843 10847 10850 10853 10857 10861 10863 10864 10866 10868 10870 10872 10874 10876 10878 10880 10881 10883 10884 10885 10887 10888 10889 10889 10890 10891 10892 10893 10895 10897 10900 10902 10904 10906 10908 10910 10912 10914 10915 10916 10916 10917 10919 10920 10920 10920 10920 10920 10920 10919 10919 10918 10919 10920 10920 10921 10921 10921 10922 10922 10922 10922 10921 10920 10920 10920 10920 10920 10920 10919 10918 10917
10791 10797 10802 10807 10811 10814 10818 10822 10826 10828 10828 10829 10833 10837 10840 10844 10847 10851 10854 10856 10858 10860 10861 10863 10866 10868 10870 10872 10874 10876 10877 10878 10879 10880 10881 10882 10882 10883 10884 10885 10887 10889 10891 10893 10896 10898 10900 10902 10904 10905 10907 10908 10909 10910 10911 10913 10914 10914 10915 10915 10915 10915 10914 10914 10914 10913 10914 10914 10914 10914 10914 10914 10914 10914 10915 10914 10914 10914 10914 10914 10913 10913 10912 10911 10911
10784 10789 10795 10800 10804 10807 10811 10815 10819 10820 10820 10822 10826 10830 10833 10837 10841 10844 10847 10849 10851 10853 10855 10857 10859 10861 10864 10866 10868 10869 10870 10871 10872 10873 10874 10875 10876 10877 10878 10879 10881 10883 10885 10888 10890 10892 10894 10896 10897 10899 10900 10901 10902 10903 10905 10906 10907 10908 10908 10909 10908 10908 10908 10908 10908 10908 10908 10908 10908 10907 10907 10907 10906 10906 10907 10907 10907 10907 10907 10906 10906 10906 10905 10904 10903